San Sebastian, Spain

4:37 AM CEST on October 17, 2017 (GMT +0200)
San Sebastian

Weather History for LESO - April, 2013

Change the Weather History Date:

Wednesday, April 17, 2013

  Actual Average Record
Temperature  
Mean Temperature 69 °F -  
Max Temperature 87 °F 63 °F 87 °F (2013)
Min Temperature 51 °F 50 °F 41 °F (2005)
Cooling Degree Days 4    
Growing Degree Days 19 (Base 50)    
Moisture  
Dew Point 51 °F    
Average Humidity 62    
Maximum Humidity 94    
Minimum Humidity 27    
Precipitation  
Precipitation 0.00 in - - ()
Sea Level Pressure  
Sea Level Pressure 30.08 in    
Wind  
Wind Speed 5 mph ()    
Max Wind Speed 18 mph    
Max Gust Speed 29 mph    
Visibility 6.2 miles    
Events      
Averages and records for this station are not official NWS values.
T = Trace of Precipitation, MM = Missing Value Source: Averaged Metar Reports

Daily Weather History Graph

Daily Weather History Graph

Search for Another Location

Airport or City:

Trip Planner

Search our weather history database for the weather conditions in past years. The results will help you decide how hot, cold, wet, or windy it might be!

Date:

Astronomy

Apr. 17, 2013 Rise Set
Actual Time 7:21 AM CEST 8:52 PM CEST
Civil Twilight 6:51 AM CEST 9:22 PM CEST
Nautical Twilight 6:15 AM CEST 9:58 PM CEST
Astronomical Twilight 5:37 AM CEST 10:37 PM CEST
Moon 12:18 PM CEST 2:24 AM CEST
Length of Visible Light 14h 30m
Length of Day
13h 31m
Waxing Crescent, 40% of the Moon is Illuminated
Apr 17
Waxing Crescent
Apr 18
First Quarter
Apr 25
Full
May 2
Last Quarter
May 10
New

Hourly Weather History & Observations

Time (CEST) Temp. Dew Point Humidity Pressure Visibility Wind Dir Wind Speed Gust Speed Precip Events Conditions
5:30 AM 51.8 °F 48.2 °F 88% 30.12 in - Variable 2.3 mph - N/A   Clear
6:00 AM 51.8 °F 50.0 °F 94% 30.09 in - Variable 1.2 mph - N/A   Clear
6:30 AM 51.8 °F 50.0 °F 94% 30.09 in - Variable 1.2 mph - N/A   Clear
7:00 AM 51.8 °F 50.0 °F 94% 30.09 in - Variable 1.2 mph - N/A   Clear
7:30 AM 51.8 °F 50.0 °F 94% 30.09 in - Variable 2.3 mph - N/A   Clear
8:00 AM 51.8 °F 50.0 °F 94% 30.09 in - Variable 1.2 mph - N/A   Clear
8:30 AM 53.6 °F 51.8 °F 94% 30.06 in - Variable 1.2 mph - N/A   Clear
9:00 AM 55.4 °F 53.6 °F 94% 30.06 in - Calm Calm - N/A   Clear
9:30 AM 59.0 °F 53.6 °F 82% 30.06 in - Variable 1.2 mph - N/A   Clear
10:00 AM 60.8 °F 53.6 °F 77% 30.06 in - Calm Calm - N/A   Clear
10:30 AM 66.2 °F 57.2 °F 73% 30.04 in - Variable 2.3 mph - N/A   Clear
11:00 AM 75.2 °F 57.2 °F 53% 30.04 in - Variable 2.3 mph - N/A   Clear
11:30 AM 78.8 °F 50.0 °F 36% 30.04 in - Variable 6.9 mph - N/A   Clear
12:00 PM 80.6 °F 50.0 °F 34% 30.04 in - South 9.2 mph - N/A   Clear
12:30 PM 82.4 °F 50.0 °F 32% 30.04 in - South 16.1 mph 28.8 mph N/A   Clear
1:00 PM 82.4 °F 48.2 °F 30% 30.04 in - SSW 18.4 mph - N/A   Clear
1:30 PM 84.2 °F 50.0 °F 30% 30.04 in - South 15.0 mph - N/A   Clear
2:00 PM 84.2 °F 50.0 °F 30% 30.01 in - SSW 15.0 mph - N/A   Clear
2:30 PM 86.0 °F 50.0 °F 29% 30.01 in - South 12.7 mph - N/A   Clear
3:00 PM 84.2 °F 48.2 °F 29% 30.04 in - SSW 13.8 mph - N/A   Clear
3:30 PM 86.0 °F 50.0 °F 29% 30.01 in - South 10.4 mph - N/A   Clear
4:00 PM 87.8 °F 50.0 °F 27% 30.01 in - SW 9.2 mph - N/A   Clear
4:30 PM 75.2 °F 53.6 °F 47% 30.01 in - WNW 11.5 mph 23.0 mph N/A   Clear
5:00 PM 71.6 °F 50.0 °F 46% 30.06 in - SW 9.2 mph 20.7 mph N/A   Clear
5:30 PM 69.8 °F 55.4 °F 60% 30.06 in 6.2 mi SW 11.5 mph - N/A   Partly Cloudy
6:00 PM 66.2 °F 55.4 °F 68% 30.09 in 6.2 mi SW 10.4 mph - N/A   Partly Cloudy
6:30 PM 64.4 °F 53.6 °F 68% 30.12 in 6.2 mi SW 10.4 mph - N/A   Partly Cloudy
7:00 PM 64.4 °F 53.6 °F 68% 30.12 in 6.2 mi SW 6.9 mph - N/A   Partly Cloudy
7:30 PM 62.6 °F 51.8 °F 68% 30.15 in 6.2 mi WSW 6.9 mph - N/A   Partly Cloudy
8:00 PM 60.8 °F 51.8 °F 72% 30.18 in 6.2 mi WSW 10.4 mph - N/A   Partly Cloudy
8:30 PM 59.0 °F 51.8 °F 77% 30.18 in 6.2 mi SW 11.5 mph - N/A   Partly Cloudy
9:00 PM 59.0 °F 50.0 °F 72% 30.21 in - SW 9.2 mph - N/A   Clear
9:30 PM 59.0 °F 50.0 °F 72% 30.21 in - SW 6.9 mph - N/A   Clear